Printer-friendly version

IAU Minor Planet Center

Minor Planet Center

MPEC 2007-P54 : 2007 PS25

The following Minor Planet Electronic Circular may be linked-to from your own Web pages, but must not otherwise be redistributed electronically.


Read MPEC 2007-P53 Read MPEC 2007-P55


M.P.E.C. 2007-P54                                Issued 2007 Aug. 14, 21:09 UT

     The Minor Planet Electronic Circulars contain information on unusual
         minor planets and routine data on comets.  They are published
   on behalf of Commission 20 of the International Astronomical Union by the
          Minor Planet Center, Smithsonian Astrophysical Observatory,
                          Cambridge, MA 02138, U.S.A.

             Prepared using the Tamkin Foundation Computer Network

                              MPC@CFA.HARVARD.EDU
          URL http://www.cfa.harvard.edu/iau/mpc.html  ISSN 1523-6714

                                   2007 PS25

Observations:
     K07P25S* C2007 08 13.32310 23 54 06.39 +06 31 57.4          18.3   EP054704
     K07P25S  C2007 08 13.33500 23 53 35.83 +06 25 37.4          18.2   EP054704
     K07P25S  C2007 08 13.34685 23 53 05.34 +06 19 17.5          19.1   EP054704
     K07P25S  C2007 08 13.35869 23 52 34.72 +06 12 55.9          18.4   EP054704
     K07P25S  C2007 08 13.37052 23 52 04.00 +06 06 33.7          18.4   EP054704
     K07P25S  C2007 08 14.32851 23 10 44.26 -03 12 49.4          18.5   EP054704
     K07P25S  C2007 08 14.32862 23 10 43.88 -03 12 54.0          19.0   EP054704
     K07P25S  C2007 08 14.34072 23 10 08.61 -03 20 21.6          18.1   EP054704
     K07P25S  C2007 08 14.34083 23 10 08.24 -03 20 25.2          18.5   EP054704
     K07P25S  C2007 08 14.35286 23 09 33.10 -03 27 51.6          17.5   EP054704
     K07P25S  C2007 08 14.35297 23 09 32.78 -03 27 55.6          17.9   EP054704
     K07P25S  C2007 08 14.36501 23 08 57.54 -03 35 22.0          17.5   EP054704
     K07P25S  C2007 08 14.36512 23 08 57.16 -03 35 26.2          17.6   EP054704
     K07P25S  C2007 08 14.37718 23 08 21.82 -03 42 52.8          18.4   EP054704
     K07P25S  C2007 08 14.37729 23 08 21.44 -03 42 56.8          18.8   EP054704

Observer details:
704 Lincoln Laboratory ETS, New Mexico.  Observers M. Bezpalko, D. Torres,
    R. Kracke, G. Spitz, J. Kistler.  Measurers J. Stuart, S. Scruggs.  1.0-m
    f/2.15 reflector + CCD.

Orbital elements:
2007 PS25                                                Earth MOID = 0.0111 AU
Epoch 2007 Oct. 27.0 TT = JDT 2454400.5                 MPC
M 278.87061              (2000.0)            P               Q
n   1.58545868     Peri.    7.80395     -0.86156832     -0.50241169
a   0.7283936      Node   141.75487     +0.45918076     -0.83234026
e   0.4223626      Incl.    6.74274     +0.21645569     -0.23407731
P   0.62           H   24.9           G   0.15           U   9
Residuals in seconds of arc
070813 704  0.0   0.2+    070814 704  0.3+  0.4+    070814 704  0.2+  0.0
070813 704  0.3-  0.5+    070814 704  0.6-  0.1-    070814 704  0.7+  0.4-
070813 704  0.3+  0.4+    070814 704  0.3+  0.3+    070814 704  0.2-  0.5-
070813 704  0.2+  0.4-    070814 704  0.5-  0.7+    070814 704  0.2+  0.2-
070813 704  0.4-  0.8-    070814 704  0.2+  0.1-    070814 704  0.7-  0.1-

Ephemeris:
2007 PS25                a,e,i = 0.73, 0.42, 7                   q = 0.4207
Date    TT    R. A. (2000) Decl.     Delta      r     Elong.  Phase     V
2007 08 08    02 06.94   +30 30.5    0.0357   1.018    94.7    83.3    20.6
2007 08 09    01 51.63   +28 27.1    0.0318   1.020    99.5    78.8    20.2
2007 08 10    01 32.91   +25 40.6    0.0280   1.022   105.3    73.2    19.7
2007 08 11    01 09.82   +21 51.4    0.0245   1.023   112.7    66.0    19.2
2007 08 12    00 41.33   +16 33.9    0.0214   1.025   122.1    56.9    18.7
2007 08 13    00 06.56   +09 22.0    0.0190   1.027   134.0    45.2    18.1
2007 08 14    23 25.39   +00 12.1    0.0174   1.028   148.4    31.1    17.5
2007 08 15    22 39.26   -10 02.7    0.0170   1.029   164.1    15.7    17.0
2007 08 16    21 51.42   -19 37.8    0.0179   1.031   173.7     6.2    16.7
2007 08 17    21 05.91   -27 09.8    0.0198   1.032   163.8    15.9    17.3
2007 08 18    20 25.77   -32 23.6    0.0225   1.033   153.3    26.1    17.9
2007 08 19    19 52.13   -35 47.9    0.0258   1.033   144.8    34.3    18.5
2007 08 20    19 24.73   -37 58.1    0.0295   1.034   138.1    40.8    18.9
2007 08 21    19 02.62   -39 21.2    0.0334   1.035   132.7    45.9    19.3
2007 08 22    18 44.76   -40 14.7    0.0374   1.035   128.3    50.0    19.7
2007 08 23    18 30.24   -40 49.7    0.0416   1.036   124.6    53.5    20.0
2007 08 24    18 18.33   -41 12.9    0.0459   1.036   121.5    56.4    20.3
2007 08 25    18 08.47   -41 28.4    0.0502   1.036   118.7    58.9    20.6
2007 08 26    18 00.21   -41 38.8    0.0546   1.036   116.2    61.1    20.8
2007 08 27    17 53.23   -41 45.7    0.0589   1.036   114.0    63.0    21.1
2007 08 28    17 47.30   -41 50.3    0.0633   1.036   112.0    64.7    21.3
2007 08 29    17 42.20   -41 53.3    0.0678   1.035   110.2    66.3    21.5
2007 08 30    17 37.80   -41 55.1    0.0722   1.035   108.4    67.8    21.7
2007 08 31    17 33.97   -41 56.2    0.0766   1.034   106.8    69.1    21.8
2007 09 01    17 30.62   -41 56.7    0.0810   1.034   105.3    70.4    22.0
2007 09 02    17 27.69   -41 56.8    0.0854   1.033   103.8    71.6    22.1
2007 09 03    17 25.10   -41 56.6    0.0898   1.032   102.4    72.7    22.3
2007 09 04    17 22.81   -41 56.3    0.0942   1.031   101.1    73.8    22.4
2007 09 05    17 20.79   -41 55.8    0.0985   1.030    99.8    74.8    22.5
2007 09 06    17 18.98   -41 55.2    0.103    1.029    98.5    75.8    22.7
2007 09 07    17 17.38   -41 54.6    0.107    1.027    97.3    76.7    22.8

Timothy B. Spahr             (C) Copyright 2007 MPC           M.P.E.C. 2007-P54

Read MPEC 2007-P53 Read MPEC 2007-P55


Our Web policy. Index to the CBAT/MPC/ICQ pages.


Valid HTML 4.01!